ギブス彗星

263P/Gibbs (2017)

English version
Home page
Updated on November 4, 2020

---------------------------------------------------------------------

・ プロフィール

・ 軌道要素

Epoch 2017 Oct. 14.0 TT = JDT 2458040.5
T 2017 Sept. 29.85102 TT                                MPC
q   1.2627922            (2000.0)            P               Q
n   0.18405431     Peri.   34.60334     -0.75986006     -0.62098721
a   3.0608266      Node   105.83035     +0.54212123     -0.76856829
e   0.5874343      Incl.   11.53129     +0.35877188     -0.15387547
P   5.35
From 134 observations 2006 Nov. 10-2012 June 14, mean residual 0".6.

・ 光度変化

        m1 = 17.5 + 5 logΔ + 10.0 log r(t - 50)

---------------------------------------------------------------------

軌道要素はM.P.E.C. 2013-B90に掲載されたものです。
光度グラフはComet for Windowsで作成したものです。

---------------------------------------------------------------------

Copyright(C) Seiichi Yoshida (comet@aerith.net). All rights reserved.